This is the latest recevied weather packets stored in our database for station/object DL3TR-13. If no packets are shown the sender has not sent any weather packets the latest 10 day(s).
| Time | Temp. | Humidity | Pressure | Rain* | Wind** | Luminosity | Snow |
|---|---|---|---|---|---|---|---|
| 1777269792 | 7.78° C | 73% | 1020.1 hPa | 0 mm | - | 232 W/m² | - |
| 1777269191 | 6.67° C | 78% | 1020.1 hPa | 0 mm | - | 206 W/m² | - |
| 1777268592 | 6.11° C | 75% | 1020.1 hPa | 0 mm | - | 178 W/m² | - |
| 1777267992 | 5.56° C | 78% | 1020.1 hPa | 0 mm | - | 148 W/m² | - |
| 1777267392 | 4.44° C | 79% | 1019.9 hPa | 0 mm | - | 26 W/m² | - |
| 1777266792 | 3.89° C | 81% | 1019.9 hPa | 0 mm | - | 23 W/m² | - |
| 1777266192 | 3.33° C | 81% | 1019.8 hPa | 0 mm | - | 21 W/m² | - |
| 1777265592 | 3.33° C | 82% | 1019.8 hPa | 0 mm | - | 18 W/m² | - |
| 1777264991 | 3.33° C | 82% | 1019.7 hPa | 0 mm | - | 14 W/m² | - |
| 1777264392 | 2.78° C | 82% | 1019.6 hPa | 0 mm | - | 11 W/m² | - |
| 1777263791 | 2.78° C | 83% | 1019.7 hPa | 0 mm | - | 7 W/m² | - |
| 1777263191 | 2.78° C | 83% | 1019.6 hPa | 0 mm | - | 0 W/m² | - |
| 1777262591 | 2.78° C | 84% | 1019.5 hPa | 0 mm | - | 0 W/m² | - |
| 1777261991 | 1.67° C | 85% | 1019.6 hPa | 0 mm | - | 0 W/m² | - |
| 1777261391 | 2.22° C | 80% | 1019.6 hPa | 0 mm | - | 0 W/m² | - |
| 1777260791 | 2.78° C | 82% | 1019.6 hPa | 0 mm | - | 0 W/m² | - |
| 1777260192 | 2.78° C | 83% | 1019.6 hPa | 0 mm | - | 0 W/m² | - |
| 1777259591 | 2.22° C | 82% | 1019.6 hPa | 0 mm | - | 0 W/m² | - |
| 1777258991 | 3.33° C | 80% | 1019.6 hPa | 0 mm | - | 0 W/m² | - |
| 1777258391 | 3.33° C | 80% | 1019.6 hPa | 0 mm | - | 0 W/m² | - |
| 1777257792 | 3.33° C | 80% | 1019.6 hPa | 0 mm | - | 0 W/m² | - |
| 1777257192 | 3.33° C | 80% | 1019.7 hPa | 0 mm | - | 0 W/m² | - |
| 1777256591 | 3.33° C | 81% | 1019.7 hPa | 0 mm | - | 0 W/m² | - |
| 1777255991 | 3.33° C | 81% | 1019.7 hPa | 0 mm | - | 0 W/m² | - |
| 1777255391 | 2.78° C | 83% | 1019.7 hPa | 0 mm | - | 0 W/m² | - |
* Rain latest hour (hover to see other rain measurements)
** Current wind speed in m/s (hover to see current wind gust speed)